www.pogodaiklimat.ru

ПОГОДА в Сент-Чарльзе, MO

  • Прогноз погоды в Сент-Чарльзе
  • Монитор погоды в Сент-Чарльзе
  • Климат в Сент-Чарльзе

АРХИВ ПОГОДЫ в Сент-Чарльзе

Время (UTC), дата Ветер
(напр.,м/с)
 
Видим.   Явления Облачность Т
(С)
Тd
(С)
f
(%)
Тe
(С)
Тes
(С)
Комфортность

P
(гПа)

Po
(гПа)
Тmin
(С)
Tmax
(С)
R
(мм)
SD
(см)
16:54 21.05 В  16 км    10/10 390 м  +15.0  +12.8  87  +13  +13    1009.4  993.5  +10.0  +15.0     
17:54 21.05 В  14 км    10/10 420 м  +17.2  +13.9  81  +16  +16    1008.4  992.9         
18:07 21.05 В  14 км    10/10 450 м  +17.2  +14.4  84  +16  +16      992.5         
18:54 21.05 В  10  13 км    10/10 450 м  +18.3  +15.0  81  +17  +17    1007.2  991.5         
19:28 21.05 В  10  13 км    10/10 420 м  +17.8  +15.0  84  +16  +16      990.5         
19:54 21.05 В  9
{14} 
14 км    10/10 420 м  +18.3  +15.6  84  +18  +18    1006.0  990.2         
20:13 21.05 В  9
{13} 
14 км    10/10 450 м  +18.9  +16.1  84  +19  +19      990.2         
20:54 21.05 В  9
{12} 
14 км    10/10 510 м  +19.4  +16.7  84  +20  +20    1005.2  989.5         
21:54 21.05 В  7
{13} 
14 км    10/10 660 м  +19.4  +17.2  87  +21  +21  комфорт  1003.5  987.9         
22:11 21.05 В  14 км  гроза  5/5 630 м  +19.4  +17.2  87  +21  +21  комфорт    988.2         
22:47 21.05 В  8
{13} 
14 км  гроза со слабым дождем  10/2 1410 м
[средняя] 
+19.4  +17.2  87  +21  +21  комфорт             
22:54 21.05 С  4
{13} 
5 км  гроза с сильным дождем, дымка  10/8 960 м
[средняя] 
+19.4  +17.8  90  +21  +21  комфорт  1003.7    +15.0  +19.4     
22:56 21.05 СЗ  11
{14} 
3 км  гроза с сильным дождем, дымка  10/8 840 м
[средняя] 
+18.9  +17.8  93  +19  +19               
23:00 21.05 СЗ  11
{14} 
1 км  гроза с сильным дождем, дымка  10/8 600 м
[средняя] 
+18.3  +17.8  97  +17  +17               
23:09 21.05 З  9
{14} 
1 км  гроза с сильным дождем, дымка  10/8 390 м
[средняя] 
+17.2  +16.7  97  +16  +16               
23:19 21.05 З  7
{14} 
3 км  гроза, сильный дождь, дымка  10/10 570 м  +17.2  +16.7  97  +16  +16               
23:23 21.05 СЗ  6
{13} 
5 км  гроза, сильный дождь, дымка  8/8 660 м  +17.2  +16.1  93  +16  +16               
23:33 21.05 СЗ  8 км  дождь, дымка  10/8 720 м
[средняя] 
+17.2  +16.1  93  +16  +16      990.5         
23:54 21.05 СЗ  16 км  слабый дождь  10/8 1800 м
[средняя] 
+17.2  +15.6  90  +17  +17    1006.7  991.2         
00:19 22.05 С  4 км  сильный дождь, дымка  10/10 900 м  +17.2  +16.1  93  +18  +18      991.5         
00:29 22.05 В  6 км  дождь, дымка  10/8 690 м
[средняя] 
+16.7  +15.6  93  +17  +17      991.5         
00:54 22.05 В  8 км  дождь, дымка  10/2 750 м
[средняя] 
+16.7  +15.6  93  +16  +16    1006.9  991.2         
01:21 22.05 нст  3 км  сильный дождь, дымка  10/10 1440 м  +16.7  +15.0  90  +17  +17      990.5         
01:34 22.05 ЮВ  8 км  слабый дождь, дымка  10/8 1500 м
[средняя] 
+16.7  +14.4  86  +16  +16      990.2         
01:54 22.05 В  11 км  слабый дождь  8/0 2100 м
[средняя] 
+16.7  +15.0  90  +15  +15    1005.3  989.5         
02:54 22.05 ЮВ  16 км    8/0 3300 м
[средняя] 
+16.7  +15.0  90  +17  +17    1006.1  990.5         
03:54 22.05 ЮВ  16 км    ясно  +16.7  +15.0  90  +16  +16    1006.6  990.9         
04:54 22.05 ЮВ  16 км    ясно  +16.7  +15.0  90  +16  +16    1006.5  990.9  +16.1  +18.9     
05:54 22.05 ЮВ  16 км    ясно  +16.1  +14.4  90  +15  +15    1007.0  991.5         
06:54 22.05 ЮВ  16 км    ясно  +15.6  +14.4  93  +15  +15    1007.0  991.5         
07:54 22.05 ЮВ  16 км    ясно  +15.6  +13.9  90  +15  +15    1007.6  991.9         
08:54 22.05 ЮВ  16 км    2/2 1950 м  +15.0  +13.9  93  +14  +14    1007.5  991.9         
09:54 22.05 В  16 км    8/8 1950 м  +13.9  +13.3  96  +12  +12    1008.3  992.5         
10:54 22.05 В  16 км    ясно  +16.1  +14.4  90  +15  +15    1008.6  993.2  +13.9  +16.7     
11:54 22.05 ЮВ  16 км    ясно  +17.2  +14.4  84  +17  +17    1009.1  993.5         
12:54 22.05 ЮВ  16 км    ясно  +18.9  +15.0  78  +20  +22    1009.0  993.5         
13:54 22.05 ЮВ  16 км    ясно  +21.7  +15.6  68  +25  +30  комфорт  1009.5  993.9         
14:54 22.05 Ю  16 км    ясно  +23.9  +16.1  62  +27  +33  жарко  1010.1  994.5         
15:54 22.05 Ю  16 км    ясно  +25.0  +16.7  60  +29  +35  душно  1010.5  994.9         
16:54 22.05 Ю  16 км    ясно  +26.7  +17.2  56  +31  +38  душно  1010.6  995.2  +16.1  +26.7     
17:54 22.05 Ю  16 км    ясно  +27.8  +16.1  49  +31  +39  душно  1010.3  994.9         
18:54 22.05 Ю  16 км    ясно  +28.9  +16.1  46  +32  +37  душно  1010.4  994.9         
19:54 22.05 Ю  6
{10} 
16 км    ясно  +29.4  +16.1  45  +33  +38  душно  1010.1  994.5         
20:54 22.05 Ю  16 км    ясно  +29.4  +16.1  45  +33  +35  душно  1010.1  994.5         
21:54 22.05 Ю  16 км    ясно  +28.9  +17.8  51  +33  +35  очень
душно 
1010.1  994.5         
22:54 22.05 ЮВ  16 км    ясно  +27.8  +19.4  60  +33  +35  очень
душно 
1010.0  994.5  +26.7  +29.4     
23:54 22.05 Ю  16 км    ясно  +26.1  +20.0  69  +32  +32  очень
душно 
1010.1  994.5         
00:54 23.05 Ю  16 км    ясно  +25.6  +20.6  74  +32  +32  очень
душно 
1010.2  994.9         

 

Местоположение метеостанции St. Charles County Smartt Airport: широта 38.9306 долгота -90.4325 высота над уровнем моря 133 м.

В архиве по умолчанию представлена погода в Сент-Чарльзе за последние 1-2 суток. Обновление информации о фактической погоде в базе происходит ежечасно! Архивные данные за месяц целиком и за предыдущие месяцы Вы можете получить, выбрав интересующий диапазон дат из раскрывающегося списка и нажав кнопку "Ввод!".

Внимание! Архив погоды МЕТАР в базе сайта хранится не более 60 дней. Нет смысла пытаться выбрать более раннюю дату.

Внимание! Время в таблицах - всемирное. Для получения местного времени необходимо прибавить поправку, которая в Сент-Чарльзе равна -6 ч.

Ветер - указаны скорость ветра в м/с и направление, откуда дует ветер: С - северный, СВ - северо-восточный, В - восточный, ЮВ - юго-восточный, Ю - южный, ЮЗ - юго-западный, З - западный, СЗ - северо-западный.
Видимость - горизонтальная дальность видимости в метрах или километрах. При видимости от 1 до 10 км при отсутствии осадков обычно наблюдается дымка, при ухудшении видимости до 1 км и менее - туман. В сухую погоду видимость может ухудшаться дымом, пылью или мглою.
Атмосферные явления - указаны явления, наблюдавшиеся в указанный момент времени.
Облачность - указаны через наклонную черту верхняя и нижняя облачность в баллах и высота нижней границы облаков в метрах. Внимание: облачность, как и прочие метеорологические величины в США измеряются автоматическими метеостанциями. Указанные значения в баллах носят условный характер и показывают процент времени, в течение которого, в среднем, лазерный луч высотомера отражался от облаков обратно.
T - Температура воздуха - температура, измеренная на высоте 2 м над землей.
Td - Температура точки росы - температура, при понижении до которой содержащийся в воздухе водяной пар достигнет насыщения.
f - Относительная влажность воздуха - влажноcть воздуха, измеренная на высоте 2 м над землей.
Te - Эффективная температура - температура, которую ощущает одетый по сезону человек в тени. Характеристика душности погоды. При расчете учитывается влияние влажности воздуха и скорости ветра на теплоощущения человека.
Tes - Эффективная температура на солнце - температура, которую ощущает человек, с поправкой на солнечный нагрев. Характеристика знойности погоды. Зависит от высоты солнца над горизонтом, облачности и скорости ветра. Ночью, в пасмурную погоду, а также при ветре 12 м/с и более поправка равна нулю.
P - Атмосферное давление - приведенное к уровню моря атмосферное давление.
Po - Атмосферное давление - измеренное на уровне метеостанции атмосферное давление.
Tmin - Минимальная температура - минимум температуры воздуха на высоте 2 м над землей.
Tmax - Максимальная температура - максимум температуры воздуха на высоте 2 м над землей.
R - Количество осадков - Количество выпавших осадков за 3 или 6 часов, мм.
SD - Снежный покров - Высота снежного покрова, см.